Time,TemperatureF,DewpointF,PressureIn,WindDirection,WindDirectionDegrees,WindSpeedMPH,WindSpeedGustMPH,Humidity,HourlyPrecipIn,Conditions,Clouds,dailyrainin,SolarRadiationWatts/m^2,SoftwareType,DateUTC
2013-02-05 00:01:00,25.0,19.0,-100.00,NNE,14,1.0,4.0,76,0.00,,,0.00,0.000000,,2013-02-05 08:01:00,
2013-02-05 00:11:00,25.0,19.0,-100.00,NNE,14,1.0,4.0,76,0.00,,,0.00,0.000000,,2013-02-05 08:11:00,
2013-02-05 00:21:00,25.0,19.0,-100.00,NNE,14,1.0,4.0,76,0.00,,,0.00,0.000000,,2013-02-05 08:21:00,
2013-02-05 00:31:00,25.0,19.0,-100.00,NNE,14,1.0,4.0,76,0.00,,,0.00,0.000000,,2013-02-05 08:31:00,
2013-02-05 00:52:00,25.0,18.0,-100.00,NNE,13,0.0,4.0,74,0.00,,,0.00,0.000000,,2013-02-05 08:52:00,
2013-02-05 01:02:00,25.0,18.0,-100.00,NNE,13,0.0,4.0,74,0.00,,,0.00,0.000000,,2013-02-05 09:02:00,
2013-02-05 01:11:00,25.0,18.0,-100.00,NNE,13,0.0,4.0,74,0.00,,,0.00,0.000000,,2013-02-05 09:11:00,
2013-02-05 01:21:00,25.0,18.0,-100.00,NNE,13,0.0,4.0,74,0.00,,,0.00,0.000000,,2013-02-05 09:21:00,
2013-02-05 01:31:00,25.0,18.0,-100.00,NNE,13,0.0,4.0,74,0.00,,,0.00,0.000000,,2013-02-05 09:31:00,
2013-02-05 01:52:00,25.0,19.0,-100.00,North,9,2.0,4.0,77,0.00,,,0.00,0.000000,,2013-02-05 09:52:00,
2013-02-05 02:01:00,25.0,19.0,-100.00,North,9,2.0,4.0,77,0.00,,,0.00,0.000000,,2013-02-05 10:01:00,
2013-02-05 02:11:00,25.0,19.0,-100.00,North,9,2.0,4.0,77,0.00,,,0.00,0.000000,,2013-02-05 10:11:00,
2013-02-05 02:21:00,25.0,19.0,-100.00,North,9,2.0,4.0,77,0.00,,,0.00,0.000000,,2013-02-05 10:21:00,
2013-02-05 02:31:00,25.0,19.0,-100.00,North,9,2.0,4.0,77,0.00,,,0.00,0.000000,,2013-02-05 10:31:00,
2013-02-05 02:52:00,24.0,17.0,-100.00,North,10,1.0,5.0,75,0.00,,,0.00,0.000000,,2013-02-05 10:52:00,
2013-02-05 03:01:00,24.0,17.0,-100.00,North,10,1.0,5.0,75,0.00,,,0.00,0.000000,,2013-02-05 11:01:00,
2013-02-05 03:11:00,24.0,17.0,-100.00,North,10,1.0,5.0,75,0.00,,,0.00,0.000000,,2013-02-05 11:11:00,
2013-02-05 03:22:00,24.0,17.0,-100.00,North,10,1.0,5.0,75,0.00,,,0.00,0.000000,,2013-02-05 11:22:00,
2013-02-05 03:32:00,24.0,17.0,-100.00,North,10,1.0,5.0,75,0.00,,,0.00,0.000000,,2013-02-05 11:32:00,
2013-02-05 03:52:00,23.0,16.0,-100.00,North,5,0.0,4.0,75,0.00,,,0.00,0.000000,,2013-02-05 11:52:00,
2013-02-05 04:01:00,23.0,16.0,-100.00,North,5,0.0,4.0,75,0.00,,,0.00,0.000000,,2013-02-05 12:01:00,
2013-02-05 04:12:00,23.0,16.0,-100.00,North,5,0.0,4.0,75,0.00,,,0.00,0.000000,,2013-02-05 12:12:00,
2013-02-05 04:21:00,23.0,16.0,-100.00,North,5,0.0,4.0,75,0.00,,,0.00,0.000000,,2013-02-05 12:21:00,
2013-02-05 04:31:00,23.0,16.0,-100.00,North,5,0.0,4.0,75,0.00,,,0.00,0.000000,,2013-02-05 12:31:00,
2013-02-05 05:01:00,23.0,16.0,-100.00,North,8,0.0,4.0,75,0.00,,,0.00,0.000000,,2013-02-05 13:01:00,
2013-02-05 05:11:00,23.0,16.0,-100.00,North,8,0.0,4.0,75,0.00,,,0.00,0.000000,,2013-02-05 13:11:00,
2013-02-05 05:21:00,23.0,16.0,-100.00,North,8,0.0,4.0,75,0.00,,,0.00,0.000000,,2013-02-05 13:21:00,
2013-02-05 05:31:00,23.0,16.0,-100.00,North,8,0.0,4.0,75,0.00,,,0.00,0.000000,,2013-02-05 13:31:00,
2013-02-05 06:01:00,23.0,16.0,-100.00,North,8,0.0,4.0,74,0.00,,,0.00,0.000000,,2013-02-05 14:01:00,
2013-02-05 06:12:00,23.0,16.0,-100.00,North,8,0.0,4.0,74,0.00,,,0.00,0.000000,,2013-02-05 14:12:00,
2013-02-05 06:21:00,23.0,16.0,-100.00,North,8,0.0,4.0,74,0.00,,,0.00,0.000000,,2013-02-05 14:21:00,
2013-02-05 06:31:00,23.0,16.0,-100.00,North,8,0.0,4.0,74,0.00,,,0.00,0.000000,,2013-02-05 14:31:00,
2013-02-05 07:01:00,23.0,17.0,-100.00,North,9,1.0,4.0,77,0.00,,,0.00,0.000000,,2013-02-05 15:01:00,
2013-02-05 07:11:00,23.0,17.0,-100.00,North,9,1.0,4.0,77,0.00,,,0.00,0.000000,,2013-02-05 15:11:00,
2013-02-05 07:21:00,23.0,17.0,-100.00,North,9,1.0,4.0,77,0.00,,,0.00,0.000000,,2013-02-05 15:21:00,
2013-02-05 07:32:00,23.0,17.0,-100.00,North,9,1.0,4.0,77,0.00,,,0.00,0.000000,,2013-02-05 15:32:00,
2013-02-05 08:01:00,24.0,18.0,-100.00,NNE,16,0.0,4.0,76,0.00,,,0.00,10.000000,,2013-02-05 16:01:00,
2013-02-05 08:11:00,24.0,18.0,-100.00,NNE,16,0.0,4.0,76,0.00,,,0.00,10.000000,,2013-02-05 16:11:00,
2013-02-05 08:22:00,24.0,18.0,-100.00,NNE,16,0.0,4.0,76,0.00,,,0.00,10.000000,,2013-02-05 16:22:00,
2013-02-05 08:52:00,32.0,23.0,-100.00,SSE,151,0.0,0.0,68,-99.99,,,-99.99,35.000000,,2013-02-05 16:52:00,
2013-02-05 09:01:00,32.0,23.0,-100.00,SSE,151,0.0,0.0,68,-99.99,,,-99.99,35.000000,,2013-02-05 17:01:00,
2013-02-05 09:21:00,32.0,23.0,-100.00,SSE,151,0.0,0.0,68,-99.99,,,-99.99,35.000000,,2013-02-05 17:21:00,
2013-02-05 09:32:00,32.0,23.0,-100.00,SSE,151,0.0,0.0,68,-99.99,,,-99.99,35.000000,,2013-02-05 17:32:00,
2013-02-05 10:01:00,51.0,18.0,-100.00,SSW,197,3.0,7.0,27,-99.99,,,0.00,478.000000,,2013-02-05 18:01:00,
2013-02-05 10:11:00,51.0,18.0,-100.00,SSW,197,3.0,7.0,27,-99.99,,,0.00,478.000000,,2013-02-05 18:11:00,
2013-02-05 10:21:00,51.0,18.0,-100.00,SSW,197,3.0,7.0,27,-99.99,,,0.00,478.000000,,2013-02-05 18:21:00,
2013-02-05 10:31:00,51.0,18.0,-100.00,SSW,197,3.0,7.0,27,-99.99,,,0.00,478.000000,,2013-02-05 18:31:00,
2013-02-05 11:02:00,52.0,10.0,-100.00,SW,225,4.0,9.0,18,0.00,,,0.00,695.000000,,2013-02-05 19:02:00,
2013-02-05 11:11:00,52.0,10.0,-100.00,SW,225,4.0,9.0,18,0.00,,,0.00,695.000000,,2013-02-05 19:11:00,
2013-02-05 11:21:00,52.0,10.0,-100.00,SW,225,4.0,9.0,18,0.00,,,0.00,695.000000,,2013-02-05 19:21:00,
2013-02-05 11:31:00,52.0,10.0,-100.00,SW,225,4.0,9.0,18,0.00,,,0.00,695.000000,,2013-02-05 19:31:00,
2013-02-05 11:52:00,56.0,9.0,-100.00,South,190,5.0,11.0,15,0.00,,,0.00,815.000000,,2013-02-05 19:52:00,
2013-02-05 12:01:00,56.0,9.0,-100.00,South,190,5.0,11.0,15,0.00,,,0.00,815.000000,,2013-02-05 20:01:00,
2013-02-05 12:11:00,56.0,9.0,-100.00,South,190,5.0,11.0,15,0.00,,,0.00,815.000000,,2013-02-05 20:11:00,
2013-02-05 12:21:00,56.0,9.0,-100.00,South,190,5.0,11.0,15,0.00,,,0.00,815.000000,,2013-02-05 20:21:00,
2013-02-05 12:31:00,56.0,9.0,-100.00,South,190,5.0,11.0,15,0.00,,,0.00,815.000000,,2013-02-05 20:31:00,
2013-02-05 13:01:00,56.0,10.0,-100.00,SSW,200,5.0,12.0,16,0.00,,,0.00,857.000000,,2013-02-05 21:01:00,
2013-02-05 13:11:00,56.0,10.0,-100.00,SSW,200,5.0,12.0,16,0.00,,,0.00,857.000000,,2013-02-05 21:11:00,
2013-02-05 13:21:00,56.0,10.0,-100.00,SSW,200,5.0,12.0,16,0.00,,,0.00,857.000000,,2013-02-05 21:21:00,
2013-02-05 13:31:00,56.0,10.0,-100.00,SSW,200,5.0,12.0,16,0.00,,,0.00,857.000000,,2013-02-05 21:31:00,
2013-02-05 14:01:00,55.0,7.0,-100.00,North,350,4.0,11.0,14,0.00,,,0.00,818.000000,,2013-02-05 22:01:00,
2013-02-05 14:31:00,55.0,7.0,-100.00,North,350,4.0,11.0,14,0.00,,,0.00,818.000000,,2013-02-05 22:31:00,
2013-02-05 15:01:00,55.0,12.0,-100.00,North,10,3.0,11.0,18,0.00,,,0.00,707.000000,,2013-02-05 23:01:00,
2013-02-05 15:11:00,55.0,12.0,-100.00,North,10,3.0,11.0,18,0.00,,,0.00,707.000000,,2013-02-05 23:11:00,
2013-02-05 15:21:00,55.0,12.0,-100.00,North,10,3.0,11.0,18,0.00,,,0.00,707.000000,,2013-02-05 23:21:00,
2013-02-05 15:32:00,55.0,12.0,-100.00,North,10,3.0,11.0,18,0.00,,,0.00,707.000000,,2013-02-05 23:32:00,
2013-02-05 16:02:00,55.0,17.0,-100.00,SW,222,3.0,9.0,22,0.00,,,0.00,524.000000,,2013-02-06 00:02:00,
2013-02-05 16:11:00,55.0,17.0,-100.00,SW,222,3.0,9.0,22,0.00,,,0.00,524.000000,,2013-02-06 00:11:00,
2013-02-05 16:21:00,55.0,17.0,-100.00,SW,222,3.0,9.0,22,0.00,,,0.00,524.000000,,2013-02-06 00:21:00,
2013-02-05 17:02:00,46.0,26.0,-100.00,West,262,0.0,8.0,46,-99.99,,,0.00,190.000000,,2013-02-06 01:02:00,
2013-02-05 17:11:00,46.0,26.0,-100.00,West,262,0.0,8.0,46,-99.99,,,0.00,190.000000,,2013-02-06 01:11:00,
2013-02-05 17:21:00,46.0,26.0,-100.00,West,262,0.0,8.0,46,-99.99,,,0.00,190.000000,,2013-02-06 01:21:00,
2013-02-05 17:31:00,46.0,26.0,-100.00,West,262,0.0,8.0,46,-99.99,,,0.00,190.000000,,2013-02-06 01:31:00,
2013-02-05 18:01:00,41.0,29.0,-100.00,NNE,19,0.0,5.0,63,0.00,,,0.00,29.000000,,2013-02-06 02:01:00,
2013-02-05 18:11:00,41.0,29.0,-100.00,NNE,19,0.0,5.0,63,0.00,,,0.00,29.000000,,2013-02-06 02:11:00,
2013-02-05 18:21:00,41.0,29.0,-100.00,NNE,19,0.0,5.0,63,0.00,,,0.00,29.000000,,2013-02-06 02:21:00,
2013-02-05 18:31:00,41.0,29.0,-100.00,NNE,19,0.0,5.0,63,0.00,,,0.00,29.000000,,2013-02-06 02:31:00,
2013-02-05 18:52:00,36.0,25.0,-100.00,North,0,0.0,5.0,63,0.00,,,0.00,0.000000,,2013-02-06 02:52:00,
2013-02-05 19:02:00,36.0,25.0,-100.00,North,0,0.0,5.0,63,0.00,,,0.00,0.000000,,2013-02-06 03:02:00,
2013-02-05 19:12:00,36.0,25.0,-100.00,North,0,0.0,5.0,63,0.00,,,0.00,0.000000,,2013-02-06 03:12:00,
2013-02-05 19:21:00,36.0,25.0,-100.00,North,0,0.0,5.0,63,0.00,,,0.00,0.000000,,2013-02-06 03:21:00,
2013-02-05 19:31:00,36.0,25.0,-100.00,North,0,0.0,5.0,63,0.00,,,0.00,0.000000,,2013-02-06 03:31:00,
2013-02-05 20:02:00,35.0,24.0,-100.00,North,9,0.0,5.0,65,0.00,,,0.00,0.000000,,2013-02-06 04:02:00,
2013-02-05 20:11:00,35.0,24.0,-100.00,North,9,0.0,5.0,65,0.00,,,0.00,0.000000,,2013-02-06 04:11:00,
2013-02-05 20:21:00,35.0,24.0,-100.00,North,9,0.0,5.0,65,0.00,,,0.00,0.000000,,2013-02-06 04:21:00,
2013-02-05 20:31:00,35.0,24.0,-100.00,North,9,0.0,5.0,65,0.00,,,0.00,0.000000,,2013-02-06 04:31:00,
2013-02-05 21:01:00,35.0,27.0,-100.00,North,10,1.0,4.0,71,0.00,,,0.00,0.000000,,2013-02-06 05:01:00,
2013-02-05 21:12:00,35.0,27.0,-100.00,North,10,1.0,4.0,71,0.00,,,0.00,0.000000,,2013-02-06 05:12:00,
2013-02-05 21:22:00,35.0,27.0,-100.00,North,10,1.0,4.0,71,0.00,,,0.00,0.000000,,2013-02-06 05:22:00,
2013-02-05 21:31:00,35.0,27.0,-100.00,North,10,1.0,4.0,71,0.00,,,0.00,0.000000,,2013-02-06 05:31:00,
2013-02-05 22:01:00,33.0,25.0,-100.00,North,5,0.0,5.0,73,0.00,,,0.00,0.000000,,2013-02-06 06:01:00,
2013-02-05 22:11:00,33.0,25.0,-100.00,North,5,0.0,5.0,73,0.00,,,0.00,0.000000,,2013-02-06 06:11:00,
2013-02-05 22:21:00,33.0,25.0,-100.00,North,5,0.0,5.0,73,0.00,,,0.00,0.000000,,2013-02-06 06:21:00,
2013-02-05 22:31:00,33.0,25.0,-100.00,North,5,0.0,5.0,73,0.00,,,0.00,0.000000,,2013-02-06 06:31:00,
2013-02-05 22:52:00,34.0,25.0,-100.00,North,9,0.0,3.0,69,0.00,,,0.00,0.000000,,2013-02-06 06:52:00,
2013-02-05 23:01:00,34.0,25.0,-100.00,North,9,0.0,3.0,69,0.00,,,0.00,0.000000,,2013-02-06 07:01:00,
2013-02-05 23:11:00,34.0,25.0,-100.00,North,9,0.0,3.0,69,0.00,,,0.00,0.000000,,2013-02-06 07:11:00,
2013-02-05 23:21:00,34.0,25.0,-100.00,North,9,0.0,3.0,69,0.00,,,0.00,0.000000,,2013-02-06 07:21:00,
2013-02-05 23:32:00,34.0,25.0,-100.00,North,9,0.0,3.0,69,0.00,,,0.00,0.000000,,2013-02-06 07:32:00,